Regional Weather Roundup
Issued by NWS

Home | Current Version | Previous Version | Graphics & Text | Print | Product List | Glossary On
Versions: 1 2 3 4 5 6 7 8 9 10 11 12 13 14 15 16 17 18 19 20 21 22 23 24 25 26 27 28 29 30 31 32 33 34 35 36 37 38 39 40 41 42 43 44 45 46 47 48 49 50
000
ASUS43 KDMX 220006
RWRIA

WEATHER ROUNDUP FOR IOWA
NATIONAL WEATHER SERVICE DES MOINES IA
600 PM CST SAT JAN 21 2017

NOTE: "FAIR" INDICATES FEW OR NO CLOUDS BELOW 12,000 FEET WITH NO
SIGNIFICANT WEATHER AND/OR OBSTRUCTIONS TO VISIBILITY.

* - THESE STATIONS ARE NOT NWS STATIONS...THUS NOT UNDER NWS
QUALITY CONTROL.  THEY ALSO DO NOT REPORT WEATHER SUCH
AS PRECIPITATION OR FOG.

IAZ001>003-012>014-020>022-031>034-043>046-220100-
   NORTHWEST IOWA

CITY           SKY/WX    TMP DP  RH WIND       PRES   REMARKS
CARROLL *      CLOUDY    37  37 100 SW3       29.49R
CHEROKEE *     PTCLDY    33  32  97 NW5       29.49R WCI  28
DENISON *      MOCLDY    39  37  93 CALM      29.47R
LE MARS *      CLEAR     32  30  93 CALM      29.51R
ORANGE CITY *  CLOUDY    32  30  93 NW8       29.48R WCI  25
SHELDON *      CLOUDY    32  32 100 W10       29.47R WCI  24
SIOUX CITY     CLEAR     36  34  92 NW5       29.50R WCI  32
6HR MIN TEMP:  36; 6HR MAX TEMP:  45;

SPENCER        CLOUDY    32  29  88 W13       29.48R WCI  22
6HR MIN TEMP:  32; 6HR MAX TEMP:  38;

STORM LAKE *   PTCLDY    34  32  93 NW8       29.48R WCI  27
$$

IAZ055>058-069>071-079>083-090>094-220100-
   SOUTHWEST IOWA

CITY           SKY/WX    TMP DP  RH WIND       PRES   REMARKS
ATLANTIC *     CLEAR     36  36 100 CALM      29.49S FOG
AUDUBON *      CLEAR     37  36  93 CALM      29.50R FOG
CLARINDA *     CLEAR     41  41 100 CALM      29.53R
COUNCIL BLFS * CLEAR     46  39  76 W3        29.49R
CRESTON *      CLEAR     41  39  93 S7        29.52R
HARLAN  *      CLEAR     37  37 100 CALM      29.53R
LAMONI         CLEAR     43  39  86 S6        29.52R
6HR MIN TEMP:  41; 6HR MAX TEMP:  47;

RED OAK *      CLEAR     41  39  93 SW5       29.50R
SHENANDOAH *   CLEAR     46  41  81 S5        29.51R
$$

IAZ047>049-059>061-072>074-084-220100-
   CENTRAL IOWA

CITY           SKY/WX    TMP DP  RH WIND       PRES   REMARKS
AMES           CLEAR     37  37 100 SW5       29.50R WCI  33
6HR MIN TEMP:  37; 6HR MAX TEMP:  46;

ANKENY *       PTCLDY    41  37  87 SW3       29.52R
BOONE *        CLOUDY    39  39 100 W6        29.49R WCI  35
CHARITON *     CLEAR     39  37  93 S7        29.53R WCI  34
DES MOINES     PTCLDY    40  36  86 W7        29.52R
6HR MIN TEMP:  39; 6HR MAX TEMP:  47;

GRINNELL*      CLOUDY    41  39  92 SW8       29.52R
KNOXVILLE *    MOCLDY    41  39  93 SW6       29.52R
MARSHALLTOWN   MOCLDY    40  39  97 SW7       29.50R
6HR MIN TEMP:  39; 6HR MAX TEMP:  46;

NEWTON *       CLOUDY    41  39  93 SW8       29.51R
PELLA *        CLOUDY    41  39  91 S3        29.54R
PERRY *          N/A     37  36  96 SW8       29.50R WCI  31
$$

IAZ004>006-015-016-023>025-035-036-220100-
   NORTH CENTRAL IOWA

CITY           SKY/WX    TMP DP  RH WIND       PRES   REMARKS
ALGONA *       CLOUDY    37  37 100 W8        29.48R WCI  31
CLARION *      MOCLDY    36  36 100 SW7       29.49R FOG     WCI  30
ESTHERVILLE    CLOUDY    33  32  96 SW12      29.46R WCI  24
6HR MIN TEMP:  33; 6HR MAX TEMP:  37;

FORT DODGE *   CLOUDY    36  30  80 CALM      29.49R
MASON CITY     CLOUDY    37  37 100 W10       29.48R FOG     WCI  30
6HR MIN TEMP:  36; 6HR MAX TEMP:  38;

FOREST CITY *  CLOUDY    36  36 100 SW6       29.47R FOG     WCI  31
WEBSTER CITY * CLEAR     37 N/A N/A W6        29.47R WCI  33
IOWA FALLS *   CLOUDY    39  38  97 SW7       29.49R WCI  34
$$

IAZ007>011-017>019-026>030-037>042-050>054-066-220100-
   NORTHEAST IOWA

CITY           SKY/WX    TMP DP  RH WIND       PRES   REMARKS
CEDAR RAPIDS   CLOUDY    41  40  96 SW8       29.51R
6HR MIN TEMP:  41; 6HR MAX TEMP:  44;

CHARLES CITY * CLOUDY    37  37 100 SW7       29.49R FOG     WCI  32
CLINTON *      CLOUDY    42  41  96 SW6       29.55R
DECORAH *      FOG       37  37 100 S6        29.48R VSB 1/4 WCI  33
DUBUQUE        CLOUDY    41  40  96 S9        29.51R FOG
6HR MIN TEMP:  40; 6HR MAX TEMP:  44;

MONTICELLO *   CLOUDY    43  41  93 S6        29.52R FOG
OELWEIN *      CLOUDY    39  37  93 SW7       29.50R FOG     WCI  34
WATERLOO       CLOUDY    40  38  93 CALM      29.50R
6HR MIN TEMP:  40; 6HR MAX TEMP:  45;

$$

IAZ064-065-067-068-078-220100-
   EAST CENTRAL IOWA

CITY           SKY/WX    TMP DP  RH WIND       PRES   REMARKS
DAVENPORT      CLOUDY    43  41  93 W10       29.55R
6HR MIN TEMP:  43; 6HR MAX TEMP:  45;

IOWA CITY      CLOUDY    45  40  82 SW7       29.55R
6HR MIN TEMP:  44; 6HR MAX TEMP:  46;

MUSCATINE *    CLOUDY    45  41  87 W10       29.55R
QUAD CITIES    MOCLDY    44  40  85 NW9       29.54R
6HR MIN TEMP:  44; 6HR MAX TEMP:  53;

$$

IAZ062-063-075>077-085>089-095>099-220100-
   SOUTHEAST IOWA

CITY           SKY/WX    TMP DP  RH WIND       PRES   REMARKS
BURLINGTON     CLEAR     46  44  93 W5        29.54R
6HR MIN TEMP:  46; 6HR MAX TEMP:  54;

FAIRFIELD *    CLOUDY    43  41  93 SW6       29.54R
FORT MADISON * CLEAR     45  43  93 W3        29.56R
KEOKUK *       CLEAR     46 N/A N/A NW3       29.54R
OSKALOOSA *    CLOUDY    41  38  89 W6        29.55R
CENTERVILLE *    N/A     39  39 100 CALM      29.55R
OTTUMWA        CLOUDY    44  39  82 W7        29.54R
6HR MIN TEMP:  44; 6HR MAX TEMP:  45;

WASHINGTON *   CLOUDY    43  41  93 SW7       29.56R
$$

ABBREVIATIONS USED IN REMARKS
   TC - TEMPERATURES IN CELSIUS
  WCI - WIND CHILL INDEX
   HX - HEAT INDEX
  VSB - VISIBILITY
$$





USA.gov is the U.S. government's official web portal to all federal, state and local government web resources and services.